Abilene Regional Airport
KABI : now visible

Airfield :











YOU CAN JOIN US ON...

 
LOGIN :

Register | Disclaimer

   EN    FR    IT 

 









Legend :    VFR   Marginal VFR   IFR   Intensive IFR   Very Intensive IFR
Visi :
Ceiling :
>= 8 km
>= 3000ft
5 to 8 km
1000 to 3000 ft
1500m to 5 km
500 to 1000 ft
800 to 1500m
200 to 500 ft
< 800m
< 200 ft
Symbols :   Thunderstorms  Fog  Heavy snow  Heavy precipitations  Wind > 20 kt






- Airport Elevation : 1791 ft


KABI - Abilene Regional

CURRENT METAR :
  • 240852Z 36005KT 10SM CLR 07/01 A3025 RMK AO2 SLP241 T00670006 56007 $

EXPIRED METARs :
  • 240752Z 01007KT 10SM FEW046 07/01 A3025 RMK AO2 SLP242 T00720006 $
  • 240652Z 01011KT 10SM OVC047 08/01 A3026 RMK AO2 SLP244 T00830006 $

TAF KABI
Valid from the 24 at 06:00 until the 25 at 06:00 UTC


240539Z 2406/2506 01008KT P6SM OVC050
FM241000 36007KT P6SM SCT050
FM241600 VRB05KT P6SM SKC
FM242200 16010KT P6SM SKC
KZFW FIR / North America



MET'MAP, your aeronautical weather chart ! - Copyright ORBIFLY December 2007 - Disclaimer

ORBIFLY MET'MAP TEAM :

Programming & Development : Alexandra Zaïnal
Concept & original design : Baudouin d'Aumeries
Assistance for programming : Marc-Olivier Méhu
Technical & hardware support : Manuel Goepfert

Contact : metmap@orbifly.com




SOURCES & CREDITS :

   NOAA       Earth
Advisory